Find Starlink 3852

NORAD ID: 52345 Int'l Des: 2022-045 Owner: SPXS Country: US Constellation: starlink operational
LEOCIRCULAR

当前视图

正在加载3D地球...

About Starlink 3852

Starlink 3852 (NORAD 52345) is a starlink constellation satellite (v1.5) launched Apr 29, 2022 by SPXS of US. It operates in LEO, CIRCULAR orbit with a mass of 297.00 kg.

即将过境

Passes for default location (London). Set your location on the main map for personalized predictions.

高度历史

Loading altitude history...

两行轨道根数

1 52345U 22045Q 26262.78878556 -.00000810 00000-0 -14357-4 0 9999
2 52345 53.1605 37.0919 0000893 87.8552 272.2551 15.31698666245214
Epoch: Sep 19, 2026 • Age: 6 hours

当前状态

高度 482.2 km
远地点 / 近地点 N/A
速度 7.62 km/s
星下点 -34.80°S, 9.18°W
发射日期 Apr 29, 2022
运行时间 4.3 years
类型 internet

技术详情

分类 Payload
质量 297.00 kg
干质量 275.00 kg
长度 0.20 m
跨度 9.00 m
形状 ? Box + pan
制造商 SPXS
平台类型 Starlink
阶段状态 In Orbit
所有者/国家 SPXS/US

Most Searched